This demonstration page uses our WeatherBlox Daily Observations layout. Learn more.

Left ArrowRight Arrow

38.83388, -104.82136

Hourly Observations for May 12, 2018

Temp ( °F °C ) Dew Point ( °F °C ) Humidity (%) Winds ( mph kmh ) Pressure ( in mb ) Visibility ( mi km ) Precip ( " mm )
12:58 am 00:58 Cloudy 55 12.5 50 9.9 84 84 Calm 29.41 996 10 16 0.00 0.00
1:08 am 01:08 Cloudy 54 12 50 10 88 88 Calm 29.43 997 10 16 0.00 0.00
1:38 am 01:38 Cloudy 54 12 50 10 88 88 ESE 3 6 29.41 996 8 13 0.00 0.00
1:58 am 01:58 Cloudy 53 11.4 49 9.4 88 88 SE 5 7 29.41 996 7 11 0.00 0.00
2:43 am 02:43 Cloudy with Mist and Fog 52 11 48 9 88 88 SE 5 7 29.41 996 5 8 0.00 0.00
2:58 am 02:58 Cloudy with Mist and Fog 50 10.2 48 8.9 92 92 SE 3 6 29.43 997 5 8 0.00 0.00
3:58 am 03:58 Cloudy with Mist and Fog 50 9.8 48 8.7 93 93 S 5 7 29.43 997 4 6 0.00 0.00
4:43 am 04:43 Cloudy with Mist and Fog 50 10 48 9 94 94 SSE 7 11 29.46 998 4 6 0.00 0.00
4:53 am 04:53 Mostly Cloudy with Mist and Fog 50 10 48 9 94 94 SSE 7 11 29.44 997 4 6 0.00 0.00
4:58 am 04:58 Mostly Cloudy with Mist and Fog 49 9.7 47 8.5 92 92 SE 8 13 29.46 998 3 5 0.00 0.00
5:58 am 05:58 Mostly Cloudy with Mist and Fog 49 9.2 47 8.6 96 96 SSE 7 11 29.48 998 1 2 0.00 0.00
6:28 am 06:28 Mostly Cloudy with Fog 48 9 48 9 100 100 SE 6 9 29.50 999 3 5 0.00 0.00
6:58 am 06:58 Mostly Cloudy with Fog 48 8.9 47 8.4 97 97 SE 10 17 29.52 1000 5 8 0.00 0.00
7:28 am 07:28 Mostly Cloudy with Mist and Fog 48 9 48 9 100 100 S 7 11 29.52 1000 5 8 0.00 0.00
7:53 am 07:53 Mostly Cloudy 52 11 48 9 88 88 ESE 3 6 29.52 1000 9 14 0.00 0.00
7:58 am 07:58 Mostly Cloudy 53 11.7 46 7.7 77 77 SSW 7 11 29.52 1000 10 16 0.00 0.00
8:13 am 08:13 Partly Cloudy 54 12 41 5 63 63 WSW 10 17 29.52 1000 10 16 0.00 0.00
8:58 am 08:58 Sunny 56 13.3 48 9.1 76 76 SE 12 19 29.53 1000 10 16 0.00 0.00
9:58 am 09:58 Mostly Sunny 57 13.9 48 8.9 72 72 SE 16 26 29.53 1000 10 16 0.00 0.00
10:13 am 10:13 Mostly Cloudy 55 13 48 9 77 77 SE 14 22 29.56 1001 10 16 0.00 0.00
10:38 am 10:38 Mostly Cloudy 59 15 48 9 68 68 SE 10 17 29.53 1000 10 16 0.00 0.00
10:43 am 10:43 Partly Cloudy 59 15 48 9 68 68 ESE 13 20 29.53 1000 10 16 0.00 0.00
10:58 am 10:58 Partly Cloudy 60 15.4 48 9.1 66 66 ESE 12 19 29.53 1000 10 16 0.00 0.00
11:03 am 11:03 Mostly Cloudy 61 16 48 9 63 63 SE 14 22 29.53 1000 10 16 0.00 0.00
11:58 am 11:58 Partly Cloudy 61 16.1 46 8 59 59 SSE 12 19 29.52 1000 10 16 0.00 0.00
12:58 pm 12:58 Mostly Sunny 63 17.2 47 8.1 55 55 SE 14 22 29.51 999 10 16 0.00 0.00
1:58 pm 13:58 Mostly Sunny 65 18.2 46 7.7 51 51 ESE 12 19 29.49 999 10 16 0.00 0.00
2:58 pm 14:58 Mostly Sunny 67 19.2 43 6.2 43 43 SE 16 26 29.48 998 10 16 0.00 0.00
3:39 pm 15:39 Sunny 66 19 41 5 40 40 S 14 22 29.48 998 10 16 0.00 0.00
3:58 pm 15:58 Mostly Sunny 68 19.8 41 5.2 39 39 SE 17 28 29.47 998 10 16 0.00 0.00
4:28 pm 16:28 Mostly Sunny 66 19 41 5 40 40 S 16 26 29.48 998 10 16 0.00 0.00
4:58 pm 16:58 Partly Cloudy 66 18.9 42 5.5 42 42 SSE 15 24 29.48 998 10 16 0.00 0.00
5:58 pm 17:58 Mostly Cloudy 64 17.9 44 6.7 48 48 SE 13 20 29.48 998 10 16 0.00 0.00
6:58 pm 18:58 Mostly Cloudy 63 17.2 46 8 55 55 SSE 13 20 29.51 999 10 16 0.00 0.00
7:58 pm 19:58 Mostly Cloudy 61 16 47 8.6 62 62 SSE 14 22 29.52 1000 10 16 0.00 0.00
8:28 pm 20:28 Cloudy 59 15 48 9 68 68 SSE 13 20 29.54 1000 10 16 0.00 0.00
8:58 pm 20:58 Mostly Cloudy 58 14.2 48 9 71 71 SE 9 15 29.56 1001 10 16 0.00 0.00
9:58 pm 21:58 Mostly Cloudy 56 13.2 48 9.1 76 76 SSE 7 11 29.59 1002 10 16 0.00 0.00
10:58 pm 22:58 Cloudy 55 12.6 49 9.4 81 81 SSE 6 9 29.58 1002 10 16 0.00 0.00
11:08 pm 23:08 Cloudy 54 12 48 9 82 82 SSE 5 7 29.58 1002 10 16 0.00 0.00
11:58 pm 23:58 Cloudy 53 11.9 49 9.6 86 86 SE 9 15 29.58 1002 10 16 0.00 0.00

Powered by AerisWeather